User: anonymous   Login
Location: Muenchen
(48.1800°N, 11.5800°E)
Time: 22:27:16
(UTC+01:00)
Language:

Iridium 37 - Orbit

View from above orbital plane
View from above orbital plane
View from above satellite
View from above satellite

Ground track
Ground track

The orbit data is extracted from the following two-line orbital elements,

1 24968U 97056D   14330.46750804  .00000324  00000-0  10847-3 0   556
2 24968 086.3957 349.1550 0002168 107.4171 252.7262 14.34217486898702
Epoch (UTC): 26 November 2014 11:13:12
Eccentricity: 0.0002168
inclination: 86.3957°
perigee height: 776 km
apogee height: 779 km
right ascension of ascending node: 349.1550°
argument of perigee: 107.4171°
revolutions per day: 14.34217486
mean anomaly at epoch: 252.7262°
orbit number at epoch: 89870

The dashed part of the orbit path shows where the satellite is in the earth's shadow,  

DLR